QPF
0.00 0.00 0.00 0.00 0.00 0.00 0.00 0.00 0.01 0.02 0.03 0.04 0.06 0.05 0.03 0.01 0.01 0.00 0.00 0.00 0.00 0.00 0.04 0.02 0.01 0.05 0.11 0.20 0.24 0.11 0.07 0.04 0.04 0.00 0.00 0.00 0.00 0.00 0.00 0.00 0.00 0.00 0.00
0.00 0.00 0.00 0.00 0.00 0.00 0.00 0.00 0.00 0.00 0.01 0.02 0.04 0.05 0.05 0.04 0.03 0.02 0.01 0.01 0.01 0.01 0.04 0.09 0.06 0.04 0.07 0.15 0.29 0.19 0.12 0.03 0.00 0.00 0.00 0.00 0.00 0.00 0.00 0.00 0.00 0.00 0.00
0.00 0.00 0.00 0.00 0.00 0.00 0.00 0.00 0.00 0.00 0.01 0.02 0.01 0.02 0.03 0.03 0.04 0.03 0.02 0.01 0.01 0.01 0.03 0.05 0.13 0.09 0.03 0.11 0.24 0.23 0.18 0.07 0.00 0.00 0.00 0.00 0.00 0.00 0.00 0.00 0.00 0.00 0.00
0.00 0.00 0.00 0.00 0.00 0.00 0.00 0.00 0.00 0.00 0.01 0.01 0.01 0.01 0.02 0.01 0.01 0.01 0.02 0.02 0.01 0.03 0.05 0.04 0.04 0.02 0.01 0.04 0.13 0.20 0.21 0.12 0.02 0.02 0.00 0.00 0.00 0.00 0.00 0.00 0.00 0.00 0.00
0.00 0.00 0.00 0.00 0.00 0.00 0.00 0.00 0.00 0.00 0.00 0.01 0.01 0.01 0.01 0.01 0.01 0.01 0.01 0.01 0.01 0.03 0.03 0.02 0.01 0.01 0.01 0.02 0.09 0.17 0.17 0.12 0.13 0.04 0.00 0.00 0.00 0.00 0.00 0.00 0.00 0.00 0.00
0.00 0.00 0.00 0.00 0.00 0.00 0.00 0.00 0.00 0.00 0.00 0.01 0.02 0.02 0.01 0.01 0.01 0.01 0.01 0.00 0.01 0.02 0.01 0.01 0.03 0.02 0.00 0.01 0.09 0.18 0.18 0.09 0.08 0.04 0.00 0.00 0.00 0.00 0.00 0.00 0.00 0.00 0.00
0.00 0.00 0.00 0.00 0.00 0.00 0.00 0.00 0.00 0.00 0.01 0.01 0.02 0.02 0.02 0.02 0.01 0.01 0.01 0.01 0.01 0.01 0.02 0.01 0.01 0.02 0.00 0.01 0.05 0.09 0.11 0.12 0.09 0.03 0.00 0.00 0.00 0.00 0.00 0.00 0.00 0.00 0.00
0.00 0.00 0.00 0.00 0.00 0.00 0.00 0.00 0.00 0.00 0.00 0.01 0.01 0.01 0.02 0.02 0.02 0.01 0.01 0.01 0.01 0.01 0.01 0.01 0.01 0.01 0.01 0.00 0.02 0.04 0.09 0.11 0.09 0.03 0.00 0.00 0.00 0.00 0.00 0.00 0.00 0.00 0.00
0.00 0.00 0.00 0.00 0.00 0.00 0.00 0.00 0.00 0.00 0.00 0.00 0.00 0.00 0.00 0.01 0.01 0.00 0.01 0.01 0.01 0.01 0.00 0.01 0.01 0.01 0.01 0.00 0.01 0.03 0.09 0.09 0.05 0.02 0.00 0.00 0.00 0.00 0.00 0.01 0.00 0.00 0.00
0.00 0.00 0.00 0.00 0.00 0.00 0.00 0.00 0.00 0.00 0.00 0.00 0.00 0.00 0.00 0.00 0.00 0.00 0.00 0.00 0.00 0.00 0.00 0.01 0.01 0.01 0.00 0.00 0.00 0.02 0.04 0.07 0.04 0.00 0.00 0.00 0.00 0.00 0.01 0.01 0.00 0.01 0.01
0.00 0.00 0.00 0.00 0.00 0.00 0.00 0.00 0.00 0.00 0.00 0.00 0.00 0.00 0.00 0.00 0.00 0.00 0.00 0.00 0.00 0.00 0.00 0.00 0.01 0.00 0.00 0.00 0.00 0.00 0.03 0.06 0.02 0.00 0.00 0.00 0.00 0.00 0.02 0.01 0.00 0.00 0.00
0.00 0.00 0.00 0.00 0.00 0.00 0.00 0.00 0.00 0.00 0.00 0.00 0.00 0.00 0.00 0.00 0.00 0.00 0.00 0.00 0.00 0.00 0.00 0.00 0.00 0.00 0.00 0.00 0.00 0.00 0.00 0.01 0.01 0.00 0.00 0.00 0.00 0.02 0.03 0.00 0.00 0.00 0.01
0.00 0.00 0.00 0.00 0.00 0.00 0.00 0.00 0.00 0.00 0.00 0.00 0.00 0.00 0.00 0.00 0.00 0.00 0.00 0.00 0.00 0.00 0.00 0.00 0.00 0.00 0.00 0.00 0.00 0.00 0.00 0.00 0.00 0.00 0.00 0.00 0.01 0.06 0.03 0.00 0.00 0.01 0.01
0.00 0.00 0.00 0.00 0.00 0.00 0.00 0.00 0.00 0.00 0.00 0.00 0.00 0.00 0.00 0.00 0.00 0.00 0.00 0.00 0.00 0.00 0.00 0.00 0.00 0.00 0.00 0.00 0.00 0.00 0.00 0.00 0.00 0.00 0.00 0.01 0.03 0.07 0.04 0.00 0.00 0.01 0.00
0.00 0.00 0.00 0.00 0.00 0.00 0.00 0.00 0.00 0.00 0.00 0.00 0.00 0.00 0.00 0.00 0.00 0.00 0.00 0.00 0.00 0.00 0.00 0.00 0.00 0.00 0.00 0.00 0.00 0.00 0.00 0.00 0.00 0.00 0.00 0.01 0.02 0.09 0.06 0.01 0.01 0.00 0.00
0.00 0.00 0.00 0.00 0.00 0.00 0.00 0.00 0.00 0.00 0.00 0.00 0.00 0.00 0.00 0.00 0.00 0.00 0.00 0.00 0.00 0.00 0.00 0.00 0.00 0.00 0.00 0.00 0.00 0.00 0.00 0.00 0.00 0.00 0.00 0.00 0.00 0.03 0.09 0.08 0.05 0.00 0.00
0.00 0.00 0.00 0.00 0.00 0.00 0.00 0.00 0.00 0.00 0.00 0.00 0.00 0.00 0.00 0.00 0.00 0.00 0.00 0.00 0.00 0.00 0.00 0.00 0.00 0.00 0.00 0.00 0.00 0.00 0.00 0.00 0.00 0.00 0.00 0.00 0.00 0.00 0.03 0.13 0.08 0.01 0.01
0.00 0.00 0.00 0.00 0.00 0.00 0.00 0.00 0.00 0.00 0.00 0.00 0.00 0.00 0.00 0.00 0.00 0.00 0.00 0.00 0.00 0.00 0.00 0.00 0.00 0.00 0.00 0.00 0.00 0.00 0.00 0.00 0.00 0.00 0.00 0.00 0.00 0.00 0.00 0.04 0.06 0.03 0.00
0.00 0.00 0.00 0.00 0.00 0.00 0.00 0.00 0.00 0.00 0.00 0.00 0.00 0.00 0.00 0.00 0.00 0.00 0.00 0.00 0.00 0.00 0.00 0.00 0.00 0.00 0.00 0.00 0.00 0.00 0.00 0.00 0.00 0.00 0.00 0.00 0.00 0.00 0.00 0.00 0.00 0.02 0.04
0.00 0.00 0.00 0.00 0.00 0.00 0.00 0.00 0.00 0.00 0.00 0.00 0.00 0.00 0.00 0.00 0.00 0.00 0.00 0.00 0.00 0.00 0.00 0.00 0.00 0.00 0.00 0.00 0.00 0.00 0.00 0.00 0.00 0.00 0.00 0.00 0.00 0.00 0.00 0.00 0.00 0.00 0.02
0.00 0.00 0.00 0.00 0.00 0.00 0.00 0.00 0.00 0.00 0.00 0.00 0.00 0.00 0.00 0.00 0.00 0.00 0.00 0.00 0.00 0.00 0.00 0.00 0.00 0.00 0.00 0.00 0.00 0.00 0.00 0.00 0.00 0.00 0.00 0.00 0.00 0.00 0.00 0.00 0.00 0.00 0.00
0.00 0.00 0.00 0.00 0.00 0.00 0.00 0.00 0.00 0.00 0.00 0.00 0.00 0.00 0.00 0.00 0.00 0.00 0.00 0.00 0.00 0.00 0.00 0.00 0.00 0.00 0.00 0.00 0.00 0.00 0.00 0.00 0.00 0.00 0.00 0.00 0.00 0.00 0.00 0.00 0.00 0.00 0.00
0.00 0.00 0.00 0.00 0.00 0.00 0.00 0.00 0.00 0.00 0.00 0.00 0.00 0.00 0.00 0.00 0.00 0.00 0.00 0.00 0.00 0.00 0.00 0.00 0.00 0.00 0.00 0.00 0.00 0.01 0.00 0.00 0.00 0.00 0.00 0.00 0.00 0.00 0.00 0.00 0.00 0.00 0.00
0.00 0.00 0.00 0.00 0.00 0.00 0.00 0.00 0.00 0.00 0.00 0.00 0.00 0.00 0.00 0.00 0.00 0.00 0.00 0.00 0.00 0.00 0.00 0.00 0.00 0.00 0.00 0.00 0.00 0.00 0.00 0.00 0.00 0.00 0.00 0.00 0.00 0.00 0.00 0.00 0.00 0.00 0.00
0.00 0.00 0.00 0.00 0.00 0.00 0.00 0.00 0.00 0.00 0.00 0.00 0.00 0.00 0.00 0.00 0.00 0.00 0.00 0.00 0.00 0.00 0.00 0.00 0.00 0.00 0.00 0.00 0.00 0.00 0.00 0.01 0.00 0.00 0.00 0.00 0.00 0.00 0.00 0.00 0.00 0.00 0.00
0.00 0.00 0.00 0.00 0.00 0.00 0.00 0.00 0.00 0.00 0.00 0.00 0.00 0.00 0.00 0.00 0.00 0.00 0.00 0.00 0.00 0.00 0.00 0.00 0.00 0.00 0.00 0.00 0.00 0.00 0.00 0.01 0.01 0.01 0.00 0.00 0.00 0.00 0.00 0.00 0.00 0.00 0.00
MSLP
1024.63 1024.36 1023.92 1023.31 1022.48 1021.80 1021.17 1020.51 1019.78 1019.12 1018.34 1017.64 1017.01 1016.47 1015.97 1015.69 1015.31 1014.83 1014.67 1014.31 1013.79 1013.63 1013.04 1012.61 1012.30 1012.18 1011.94 1011.84 1011.59 1011.45 1011.39 1011.34 1011.38 1011.57 1011.54 1011.64 1011.88 1012.06 1012.41 1012.35 1012.43 1012.54 1012.82
1025.17 1024.68 1024.27 1023.70 1022.90 1022.05 1021.39 1020.82 1020.05 1019.18 1018.53 1017.83 1017.32 1016.90 1016.41 1015.93 1015.35 1015.13 1014.70 1014.58 1014.10 1013.57 1013.58 1012.80 1012.57 1012.36 1011.77 1011.52 1011.35 1011.25 1011.32 1011.31 1011.30 1011.47 1011.59 1011.68 1011.90 1012.15 1012.39 1012.38 1012.49 1012.48 1012.98
1025.19 1024.73 1024.34 1023.77 1023.13 1022.34 1021.60 1021.01 1020.21 1019.49 1018.77 1018.08 1017.61 1017.25 1016.82 1016.33 1015.92 1015.37 1015.11 1014.80 1014.21 1013.67 1013.52 1013.13 1012.62 1012.20 1011.75 1011.43 1011.15 1010.98 1010.99 1011.15 1011.18 1011.32 1011.56 1011.77 1012.01 1012.25 1012.31 1012.40 1012.47 1012.59 1012.86
1025.39 1024.91 1024.49 1023.82 1023.17 1022.53 1021.89 1021.32 1020.58 1019.91 1019.35 1018.58 1017.85 1017.56 1017.23 1016.83 1016.43 1015.80 1015.22 1015.07 1014.55 1014.08 1013.45 1012.88 1012.71 1012.03 1011.62 1011.32 1010.84 1010.68 1010.58 1010.82 1010.86 1011.05 1011.43 1011.62 1011.72 1011.99 1012.24 1012.45 1012.39 1012.62 1012.88
1025.58 1025.17 1024.69 1023.97 1023.32 1022.60 1022.15 1021.62 1021.07 1020.39 1019.87 1019.09 1018.43 1017.80 1017.38 1017.01 1016.65 1016.20 1015.76 1015.23 1014.87 1014.26 1013.74 1013.05 1012.59 1012.02 1011.56 1011.23 1010.95 1010.24 1010.20 1010.44 1010.67 1010.92 1011.13 1011.45 1011.55 1011.58 1011.97 1012.33 1012.43 1012.62 1012.88
1025.81 1025.44 1025.00 1024.15 1023.59 1022.89 1022.57 1021.97 1021.39 1020.86 1020.16 1019.61 1018.97 1018.48 1017.71 1017.19 1016.97 1016.58 1016.11 1015.58 1015.23 1014.59 1014.05 1013.28 1012.70 1011.97 1011.70 1011.24 1010.54 1009.85 1009.61 1009.99 1010.35 1010.67 1010.88 1011.06 1011.20 1011.23 1011.67 1012.01 1012.45 1012.68 1012.86
1026.25 1025.79 1025.17 1024.61 1024.10 1023.45 1022.86 1022.36 1021.63 1021.19 1020.68 1020.42 1019.82 1019.30 1018.54 1017.73 1017.26 1016.87 1016.38 1015.93 1015.36 1014.68 1014.06 1013.69 1013.08 1012.48 1011.76 1011.08 1010.47 1009.64 1009.15 1009.21 1009.68 1010.06 1010.46 1010.56 1010.80 1010.93 1011.40 1011.88 1012.33 1012.63 1012.92
1026.50 1026.06 1025.62 1025.11 1024.45 1023.87 1023.35 1022.92 1022.16 1021.91 1021.38 1021.17 1020.70 1020.00 1019.40 1018.66 1017.89 1017.33 1016.64 1016.04 1015.34 1014.87 1014.23 1013.82 1013.12 1012.46 1011.75 1010.88 1010.16 1009.23 1008.57 1008.75 1009.14 1009.54 1009.92 1010.08 1010.15 1010.62 1011.21 1011.68 1012.19 1012.59 1012.94
1026.88 1026.46 1025.95 1025.45 1024.88 1024.47 1024.18 1023.62 1023.03 1022.73 1022.23 1021.70 1021.20 1020.67 1019.93 1019.25 1018.52 1017.86 1017.42 1016.50 1015.70 1015.24 1014.67 1013.97 1013.25 1012.43 1011.72 1010.93 1010.08 1009.03 1007.97 1008.10 1008.19 1009.02 1009.55 1009.52 1009.85 1010.33 1010.94 1011.58 1011.99 1012.42 1012.84
1027.02 1026.72 1026.28 1025.85 1025.28 1024.86 1024.62 1024.17 1023.66 1023.36 1023.20 1022.67 1022.05 1021.38 1020.76 1019.95 1019.10 1018.34 1017.59 1016.98 1016.18 1015.57 1014.84 1014.18 1013.41 1012.49 1011.84 1010.91 1010.13 1009.21 1007.34 1007.51 1007.86 1008.55 1009.49 1009.10 1009.53 1009.93 1010.60 1011.41 1011.88 1012.37 1012.92
1027.55 1027.30 1026.95 1026.46 1025.71 1025.19 1024.74 1024.27 1024.02 1023.92 1023.59 1022.97 1022.55 1022.05 1021.18 1020.48 1019.80 1018.97 1018.19 1017.21 1016.58 1015.89 1015.23 1014.30 1013.66 1012.89 1012.14 1011.43 1010.57 1009.61 1007.73 1006.38 1007.39 1008.13 1009.26 1009.05 1009.14 1009.70 1010.35 1011.15 1011.77 1012.30 1012.74
1028.15 1027.70 1027.31 1026.61 1026.15 1025.65 1025.13 1024.77 1024.47 1024.10 1023.96 1023.68 1023.37 1022.93 1022.09 1021.26 1020.57 1019.72 1018.71 1017.88 1017.07 1016.21 1015.59 1014.75 1014.14 1013.33 1012.65 1011.98 1011.00 1009.90 1008.70 1008.49 1007.06 1008.44 1009.09 1009.03 1009.06 1009.53 1010.10 1010.93 1011.45 1012.03 1012.59
1028.44 1027.99 1027.64 1027.11 1026.51 1026.17 1025.79 1025.51 1025.07 1024.64 1024.37 1024.09 1023.76 1023.24 1022.74 1021.65 1020.98 1020.17 1019.38 1018.64 1017.65 1016.76 1015.91 1015.17 1014.59 1013.93 1013.16 1012.49 1011.52 1010.68 1009.74 1008.58 1008.00 1008.63 1009.38 1009.31 1008.89 1009.34 1009.98 1010.69 1010.96 1011.72 1012.36
1028.87 1028.49 1028.16 1027.68 1026.99 1026.59 1026.24 1025.99 1025.63 1025.11 1024.81 1024.51 1024.36 1023.97 1023.11 1022.60 1021.84 1021.02 1020.32 1019.33 1018.39 1017.40 1016.43 1015.59 1014.82 1014.36 1013.54 1012.89 1012.08 1011.35 1010.83 1010.06 1009.53 1009.17 1009.70 1009.63 1009.69 1009.36 1010.04 1010.33 1010.60 1011.41 1012.10
1029.15 1028.73 1028.35 1027.95 1027.57 1027.05 1026.57 1026.25 1025.78 1025.47 1025.17 1025.04 1024.63 1024.32 1023.91 1023.25 1022.74 1021.67 1020.82 1020.03 1019.03 1018.06 1017.08 1015.88 1015.05 1014.44 1013.93 1013.43 1012.68 1012.21 1011.67 1011.18 1010.60 1010.49 1010.35 1010.34 1010.08 1009.88 1009.93 1010.14 1010.48 1011.13 1011.50
1028.97 1028.72 1028.41 1028.10 1027.79 1027.45 1027.07 1026.69 1026.26 1025.65 1025.35 1025.31 1025.22 1024.93 1024.50 1024.00 1023.30 1022.67 1021.68 1020.70 1019.81 1018.65 1017.60 1016.39 1015.21 1014.80 1014.37 1013.80 1013.26 1012.82 1012.37 1011.93 1011.35 1011.09 1010.94 1010.59 1010.76 1010.36 1009.61 1010.00 1010.31 1010.95 1011.21
1029.07 1028.92 1028.54 1028.14 1028.00 1027.76 1027.46 1027.07 1026.57 1026.09 1025.79 1025.65 1025.46 1025.28 1024.88 1024.35 1023.84 1023.09 1022.23 1021.17 1020.16 1019.03 1018.06 1016.89 1015.59 1014.78 1014.33 1014.00 1013.71 1013.51 1013.04 1012.37 1012.03 1011.86 1011.72 1011.63 1011.84 1010.84 1010.10 1010.01 1010.28 1010.79 1010.98
1029.27 1029.13 1028.93 1028.54 1028.37 1028.08 1027.77 1027.40 1026.87 1026.48 1026.42 1026.24 1025.91 1025.59 1025.12 1024.62 1024.16 1023.44 1022.73 1021.67 1020.93 1019.73 1018.62 1017.56 1016.53 1015.15 1014.62 1014.37 1014.15 1013.77 1013.64 1013.07 1012.65 1012.33 1012.28 1012.60 1012.39 1011.70 1011.46 1010.90 1010.14 1010.71 1010.80
1029.49 1029.30 1029.16 1028.97 1028.80 1028.53 1028.15 1027.65 1027.14 1026.65 1026.36 1026.30 1026.14 1025.92 1025.64 1025.17 1024.62 1024.11 1023.20 1021.92 1020.98 1020.15 1019.21 1018.19 1017.15 1015.97 1014.91 1014.38 1014.20 1013.96 1014.05 1013.60 1013.14 1012.84 1012.97 1012.94 1012.89 1012.74 1012.40 1011.78 1011.09 1011.34 1011.17
1029.51 1029.47 1029.35 1029.13 1029.02 1028.76 1028.55 1028.15 1027.39 1026.86 1026.73 1026.62 1026.60 1026.28 1025.96 1025.55 1025.06 1024.53 1023.65 1022.47 1021.31 1020.62 1019.92 1018.84 1017.84 1016.43 1015.28 1014.79 1014.35 1014.17 1014.27 1013.99 1013.71 1013.49 1013.44 1013.46 1013.36 1013.35 1013.13 1012.52 1012.17 1012.34 1011.93
1029.60 1029.70 1029.58 1029.42 1029.28 1029.09 1028.97 1028.48 1027.92 1027.73 1027.38 1027.13 1026.99 1026.64 1026.15 1025.87 1025.37 1024.85 1024.07 1023.03 1022.18 1021.37 1020.62 1019.57 1018.56 1017.04 1015.97 1014.97 1014.52 1014.21 1014.22 1014.16 1014.08 1013.91 1014.03 1013.74 1013.78 1013.67 1013.48 1012.84 1013.67 1012.87 1013.18
1029.92 1029.87 1029.89 1029.87 1029.70 1029.58 1029.31 1028.87 1028.62 1028.31 1028.00 1027.63 1027.29 1026.98 1026.61 1026.21 1025.82 1025.21 1024.64 1023.84 1022.88 1021.97 1020.95 1019.78 1018.94 1017.78 1016.99 1015.86 1014.96 1014.48 1014.27 1014.36 1014.27 1014.10 1014.01 1014.13 1014.45 1014.22 1014.03 1014.08 1014.32 1014.29 1014.23
1030.06 1030.18 1030.18 1030.10 1030.09 1030.00 1029.79 1029.29 1028.92 1028.65 1028.43 1028.21 1028.00 1027.55 1027.20 1026.73 1026.28 1025.68 1024.92 1024.11 1023.41 1022.47 1021.56 1020.69 1019.59 1018.74 1018.07 1016.86 1015.96 1015.00 1014.36 1014.48 1014.42 1014.39 1014.31 1014.35 1014.51 1014.37 1014.64 1014.74 1015.08 1014.97 1014.81
1030.15 1030.25 1030.36 1030.39 1030.29 1030.17 1030.23 1029.92 1029.60 1029.68 1029.56 1029.25 1028.80 1028.30 1027.71 1027.21 1026.70 1026.01 1025.17 1024.39 1023.86 1023.05 1022.10 1021.38 1020.44 1019.85 1019.10 1017.98 1016.92 1015.78 1015.00 1014.70 1014.78 1014.74 1014.66 1014.74 1014.81 1014.80 1014.98 1015.13 1015.31 1015.12 1015.06
1030.24 1030.60 1030.59 1030.64 1030.67 1030.71 1030.64 1030.29 1030.15 1030.20 1030.28 1029.83 1029.32 1028.85 1028.17 1027.65 1027.13 1026.30 1025.50 1024.85 1024.18 1023.46 1022.66 1021.85 1021.10 1020.39 1019.55 1019.26 1018.34 1017.06 1015.90 1014.91 1014.83 1014.74 1014.56 1014.74 1015.00 1015.10 1015.12 1015.21 1015.31 1015.27 1015.26
1030.45 1030.62 1030.74 1030.77 1031.01 1031.22 1030.96 1030.72 1030.61 1030.80 1030.73 1030.44 1029.76 1029.52 1028.98 1028.50 1027.73 1026.94 1026.16 1025.30 1024.65 1023.79 1023.04 1022.21 1021.52 1020.92 1020.13 1019.59 1018.84 1017.96 1017.27 1016.41 1015.23 1014.67 1014.67 1014.77 1015.09 1015.19 1015.07 1015.04 1015.36 1015.47 1015.54
Thickness
5605 5607 5609 5612 5617 5620 5623 5626 5629 5632 5635 5637 5640 5640 5641 5643 5645 5650 5651 5652 5656 5658 5663 5667 5670 5672 5676 5677 5681 5684 5686 5685 5687 5686 5687 5687 5685 5685 5684 5686 5687 5687 5686
5602 5604 5605 5608 5612 5616 5619 5622 5626 5631 5631 5633 5634 5633 5634 5635 5640 5640 5644 5643 5646 5652 5652 5660 5662 5665 5671 5674 5675 5678 5679 5680 5682 5681 5682 5683 5681 5680 5680 5681 5682 5685 5680
5602 5604 5605 5607 5610 5613 5616 5619 5622 5625 5628 5629 5629 5628 5628 5629 5628 5631 5633 5635 5641 5645 5644 5649 5654 5657 5663 5667 5670 5674 5675 5675 5677 5678 5678 5678 5676 5675 5676 5677 5677 5678 5677
5602 5604 5605 5607 5609 5611 5614 5615 5616 5620 5620 5623 5624 5622 5620 5620 5619 5623 5624 5624 5629 5634 5637 5642 5646 5653 5657 5661 5667 5671 5673 5672 5673 5675 5674 5674 5674 5672 5672 5672 5674 5673 5673
5600 5601 5602 5605 5607 5609 5609 5610 5610 5612 5611 5615 5618 5618 5618 5616 5615 5615 5615 5616 5616 5623 5628 5632 5636 5646 5652 5656 5660 5668 5670 5670 5669 5668 5670 5669 5670 5670 5669 5667 5669 5668 5668
5597 5597 5598 5602 5604 5605 5603 5603 5604 5603 5603 5604 5605 5608 5611 5611 5608 5607 5607 5607 5605 5609 5614 5621 5627 5637 5642 5648 5655 5664 5668 5667 5666 5664 5666 5667 5666 5666 5666 5664 5663 5663 5663
5592 5593 5596 5596 5597 5597 5597 5597 5597 5596 5595 5592 5591 5593 5596 5598 5599 5599 5598 5597 5598 5602 5605 5608 5616 5623 5632 5641 5649 5658 5664 5665 5665 5662 5662 5665 5664 5662 5662 5660 5658 5658 5658
5588 5588 5588 5589 5590 5590 5589 5589 5591 5588 5586 5582 5581 5580 5580 5582 5585 5585 5588 5588 5591 5593 5596 5597 5603 5614 5621 5632 5642 5652 5661 5663 5660 5657 5660 5662 5664 5657 5657 5656 5654 5653 5652
5582 5582 5584 5584 5584 5583 5580 5579 5577 5575 5572 5571 5569 5569 5568 5568 5569 5571 5570 5574 5577 5579 5583 5587 5592 5602 5612 5620 5632 5645 5658 5659 5655 5651 5653 5657 5658 5654 5652 5651 5650 5649 5648
5579 5578 5578 5577 5576 5573 5570 5568 5566 5563 5557 5554 5553 5551 5552 5554 5555 5557 5558 5559 5562 5564 5571 5576 5582 5591 5600 5610 5620 5633 5654 5656 5653 5649 5643 5650 5651 5650 5647 5645 5644 5643 5641
5572 5571 5570 5568 5568 5566 5562 5560 5556 5550 5545 5543 5538 5535 5535 5537 5538 5541 5541 5545 5546 5549 5554 5563 5569 5577 5587 5594 5605 5619 5642 5652 5646 5642 5635 5643 5645 5643 5641 5640 5636 5636 5635
5564 5563 5562 5561 5559 5558 5554 5550 5545 5539 5533 5529 5524 5518 5517 5517 5518 5520 5523 5524 5527 5533 5537 5545 5552 5561 5570 5578 5590 5606 5621 5625 5636 5629 5627 5632 5637 5636 5635 5634 5631 5630 5629
5557 5556 5554 5551 5550 5547 5542 5537 5533 5526 5519 5512 5507 5503 5497 5499 5496 5497 5498 5499 5504 5511 5519 5528 5535 5543 5552 5562 5574 5589 5601 5617 5621 5618 5615 5622 5630 5629 5627 5626 5626 5625 5622
5548 5546 5544 5542 5540 5536 5530 5525 5518 5513 5505 5496 5487 5481 5483 5475 5470 5466 5469 5474 5481 5490 5498 5508 5519 5526 5536 5545 5557 5569 5577 5590 5596 5604 5604 5610 5614 5618 5615 5619 5619 5618 5616
5540 5538 5536 5533 5528 5524 5518 5513 5507 5499 5490 5479 5471 5463 5454 5451 5440 5441 5443 5449 5458 5469 5477 5490 5502 5511 5520 5528 5539 5549 5560 5566 5576 5581 5588 5594 5601 5604 5606 5610 5611 5612 5611
5536 5532 5529 5524 5518 5512 5507 5500 5492 5484 5475 5464 5452 5443 5432 5419 5418 5412 5415 5423 5432 5445 5457 5469 5484 5493 5503 5512 5523 5530 5540 5546 5556 5564 5572 5581 5586 5592 5599 5601 5602 5601 5603
5529 5524 5520 5515 5509 5502 5494 5485 5477 5469 5459 5446 5436 5424 5412 5403 5395 5395 5396 5401 5411 5423 5435 5449 5464 5477 5489 5497 5506 5512 5519 5530 5539 5544 5554 5563 5566 5578 5586 5588 5589 5591 5595
5521 5515 5510 5504 5497 5489 5480 5471 5461 5452 5439 5426 5415 5404 5395 5389 5383 5381 5382 5387 5390 5400 5413 5428 5441 5459 5471 5479 5488 5496 5502 5510 5522 5530 5538 5543 5552 5561 5565 5573 5580 5581 5586
5512 5507 5501 5493 5485 5477 5468 5460 5450 5440 5427 5414 5401 5389 5379 5373 5370 5366 5368 5375 5379 5383 5392 5405 5421 5438 5453 5465 5473 5481 5486 5495 5503 5516 5520 5524 5533 5541 5548 5556 5563 5566 5572
5505 5498 5492 5483 5474 5465 5456 5446 5439 5430 5415 5401 5387 5375 5367 5362 5358 5355 5355 5358 5366 5369 5375 5386 5401 5420 5435 5446 5458 5466 5471 5480 5487 5498 5505 5509 5516 5524 5530 5538 5545 5548 5558
5498 5489 5482 5474 5465 5456 5446 5438 5428 5415 5403 5388 5372 5363 5358 5352 5348 5345 5344 5345 5347 5353 5360 5369 5379 5400 5416 5429 5442 5453 5459 5468 5476 5482 5489 5496 5501 5509 5514 5523 5522 5534 5537
5488 5480 5472 5461 5453 5443 5434 5426 5413 5400 5385 5373 5361 5351 5345 5341 5337 5335 5332 5331 5332 5336 5345 5357 5363 5380 5394 5410 5429 5440 5451 5456 5461 5471 5479 5482 5484 5492 5498 5502 5506 5511 5517
5479 5470 5462 5452 5442 5433 5423 5413 5400 5387 5374 5363 5352 5344 5336 5331 5327 5323 5323 5323 5321 5322 5327 5338 5350 5361 5375 5390 5405 5423 5439 5444 5450 5458 5464 5470 5472 5479 5482 5484 5488 5495 5502
5472 5463 5453 5442 5434 5424 5412 5401 5389 5375 5361 5350 5339 5331 5326 5321 5317 5314 5315 5316 5311 5310 5315 5321 5335 5345 5356 5372 5387 5404 5418 5429 5437 5445 5448 5454 5458 5464 5468 5471 5476 5483 5488
5464 5452 5443 5434 5425 5414 5403 5393 5380 5364 5348 5338 5330 5323 5318 5312 5309 5309 5309 5307 5305 5303 5305 5311 5319 5331 5344 5354 5369 5383 5401 5419 5425 5433 5441 5442 5444 5448 5455 5461 5465 5471 5477
5455 5445 5436 5427 5416 5405 5394 5384 5371 5355 5341 5329 5324 5316 5309 5303 5300 5299 5298 5298 5296 5296 5298 5303 5310 5319 5331 5344 5355 5369 5379 5394 5414 5423 5428 5433 5436 5439 5446 5452 5454 5459 5464